Location: Ch?enovice
(49.7164°N, 15.2160°E)
Time: 19:23:00
(UTC+00:00)

USA 267 - Visible Passes

Search period start: 09 November 2025 00:00
Search period end: 19 November 2025 00:00
Orbit: 1100 x 1108 km, 123.0° (Epoch: 02 November)

Date Brightness Start Highest point End Pass type
(mag) Time Alt. Az. Time Alt. Az. Time Alt. Az.
09 Nov 5.6 00:47:18 10° ENE 00:48:27 14° E 00:48:27 14° E visible
09 Nov 3.4 02:29:19 10° ENE 02:35:49 65° SE 02:35:49 65° SE visible
09 Nov 3.4 04:12:26 10° ENE 04:18:52 62° NNW 04:23:10 22° W visible
10 Nov 4.5 01:46:46 10° ENE 01:51:20 34° ESE 01:51:20 34° ESE visible
10 Nov 3.2 03:29:39 10° ENE 03:36:12 84° NNW 03:38:42 42° WSW visible
10 Nov 3.6 05:12:40 10° ENE 05:18:55 50° N 05:25:11 10° W visible
11 Nov 5.4 01:04:49 10° ENE 01:06:54 16° E 01:06:54 16° E visible
11 Nov 3.4 02:46:52 10° ENE 02:53:22 65° SE 02:54:15 59° S visible
11 Nov 3.4 04:29:58 10° ENE 04:36:24 61° NNW 04:41:36 16° W visible
12 Nov 4.3 02:04:17 10° ENE 02:09:50 38° ESE 02:09:50 38° ESE visible
12 Nov 3.2 03:47:10 10° ENE 03:53:45 83° NNW 03:57:11 31° WSW visible
12 Nov 3.6 05:30:11 10° ENE 05:36:27 50° N 05:42:42 10° W visible
13 Nov 5.3 01:22:20 10° ENE 01:25:26 19° ESE 01:25:26 19° ESE visible
13 Nov 3.4 03:04:23 10° ENE 03:10:54 65° SE 03:12:47 46° SSW visible
13 Nov 3.4 04:47:29 10° ENE 04:53:56 61° NNW 05:00:09 11° W visible
14 Nov 4.2 02:21:49 10° ENE 02:27:51 38° SE 02:28:25 38° SE visible
14 Nov 3.2 04:04:42 10° ENE 04:11:16 83° NNW 04:15:47 22° WSW visible
15 Nov 5.1 01:39:51 10° ENE 01:44:06 21° ESE 01:44:06 21° ESE visible
15 Nov 3.5 03:21:55 10° ENE 03:28:26 66° SE 03:31:27 34° SSW visible
15 Nov 3.4 05:05:02 10° ENE 05:11:27 61° NNW 05:17:52 10° W visible
16 Nov 4.3 02:39:20 10° ENE 02:45:23 39° SE 02:47:10 33° SSE visible
16 Nov 3.2 04:22:14 10° ENE 04:28:48 83° NNW 04:34:32 14° WSW visible
17 Nov 5.1 01:57:22 10° ENE 02:02:06 21° SE 02:02:55 20° SE visible
17 Nov 3.5 03:39:26 10° ENE 03:45:58 66° SE 03:50:17 23° SW visible
17 Nov 3.4 05:22:34 10° ENE 05:28:59 61° NNW 05:35:24 10° W visible
18 Nov 4.3 02:56:52 10° ENE 03:02:55 39° SE 03:06:06 25° S visible
18 Nov 3.2 04:39:45 10° ENE 04:46:19 83° NNW 04:52:52 10° WSW visible
